When you browse on this site, cookies collect data to enhance your experience and personalize the content and advertising you see.
Visit our Privacy Policy to learn more. By continuing to use the site, you agree to this use of cookies and data.
  • In Latvia
  • List of Countries
  • For 7 days
  • Water Temperature
  • Weather Map
  • Weather Widgets
  • user-avatar
    Login

    Hourly Weather Louangphabang

    Today, 20 January, Monday

    Time Temperature Precipitation Wind Pressure Humidity
    00:00 +20°C° 0 mm 1 mps 699 mmHg 77%
    01:00 +20°C° 0 mm 1 mps 699 mmHg 80%
    02:00 +19°C° 0 mm 1 mps 699 mmHg 82%
    03:00 +19°C° 0 mm 1 mps 699 mmHg 84%
    04:00 +17°C° 0 mm 0 mps 699 mmHg 86%
    05:00 +16°C° 0 mm 0 mps 699 mmHg 88%
    06:00 +16°C° 0 mm 0 mps 699 mmHg 91%
    07:00 +16°C° 0 mm 0 mps 700 mmHg 96%
    08:00 +19°C° 0 mm 0 mps 701 mmHg 82%
    09:00 +22°C° 0 mm 0 mps 701 mmHg 69%
    10:00 +25°C° 0 mm 0 mps 702 mmHg 55%
    11:00 +28°C° 0 mm 1 mps 702 mmHg 50%
    12:00 +29°C° 0 mm 1 mps 701 mmHg 46%
    13:00 +30°C° 0 mm 1 mps 700 mmHg 41%
    14:00 +30°C° 0 mm 1 mps 700 mmHg 42%
    15:00 +30°C° 0 mm 1 mps 699 mmHg 43%
    16:00 +29°C° 0 mm 1 mps 699 mmHg 44%
    17:00 +27°C° 0 mm 1 mps 699 mmHg 52%
    18:00 +25°C° 0 mm 1 mps 699 mmHg 60%
    19:00 +23°C° 0 mm 1 mps 699 mmHg 69%
    20:00 +22°C° 0 mm 1 mps 700 mmHg 72%
    21:00 +21°C° 0 mm 1 mps 700 mmHg 75%
    22:00 +21°C° 0 mm 1 mps 700 mmHg 78%
    23:00 +20°C° 0 mm 1 mps 700 mmHg 80%

    Tomorrow, 21 January, Tuesday

    Time Temperature Precipitation Wind Pressure Humidity
    00:00 +20°C° 0 mm 1 mps 700 mmHg 81%
    01:00 +20°C° 0 mm 1 mps 700 mmHg 83%
    02:00 +19°C° 0 mm 1 mps 700 mmHg 84%
    03:00 +17°C° 0 mm 0 mps 700 mmHg 85%
    04:00 +17°C° 0 mm 0 mps 700 mmHg 86%
    05:00 +17°C° 0 mm 0 mps 700 mmHg 87%
    06:00 +16°C° 0 mm 0 mps 700 mmHg 88%
    07:00 +16°C° 0 mm 0 mps 700 mmHg 89%
    08:00 +19°C° 0 mm 0 mps 701 mmHg 76%
    09:00 +23°C° 0 mm 0 mps 702 mmHg 63%
    10:00 +26°C° 0 mm 0 mps 703 mmHg 51%
    11:00 +29°C° 0 mm 1 mps 703 mmHg 47%
    12:00 +30°C° 0 mm 1 mps 702 mmHg 43%
    13:00 +31°C° 0 mm 2 mps 701 mmHg 39%
    14:00 +31°C° 0 mm 2 mps 701 mmHg 40%
    15:00 +31°C° 0 mm 1 mps 700 mmHg 40%
    16:00 +30°C° 0 mm 1 mps 699 mmHg 40%
    17:00 +28°C° 0 mm 1 mps 699 mmHg 48%
    18:00 +26°C° 0 mm 1 mps 699 mmHg 56%
    19:00 +23°C° 0 mm 1 mps 699 mmHg 64%
    20:00 +23°C° 0 mm 1 mps 700 mmHg 66%
    21:00 +22°C° 0 mm 1 mps 700 mmHg 68%
    22:00 +22°C° 0 mm 1 mps 700 mmHg 70%
    23:00 +21°C° 0 mm 1 mps 700 mmHg 72%

    Day after tomorrow, 22 January, Wednesday

    Time Temperature Precipitation Wind Pressure Humidity
    00:00 +21°C° 0 mm 1 mps 700 mmHg 73%
    01:00 +18°C° 0 mm 0 mps 700 mmHg 75%
    02:00 +18°C° 0 mm 0 mps 700 mmHg 77%
    03:00 +18°C° 0 mm 0 mps 699 mmHg 79%
    04:00 +17°C° 0 mm 0 mps 699 mmHg 81%
    05:00 +17°C° 0 mm 0 mps 699 mmHg 82%
    06:00 +17°C° 0 mm 0 mps 700 mmHg 83%
    07:00 +17°C° 0 mm 0 mps 700 mmHg 84%
    08:00 +20°C° 0 mm 0 mps 701 mmHg 71%
    09:00 +24°C° 0 mm 0 mps 702 mmHg 58%
    10:00 +27°C° 0 mm 0 mps 703 mmHg 46%
    11:00 +30°C° 0 mm 1 mps 702 mmHg 42%
    12:00 +31°C° 0 mm 1 mps 701 mmHg 38%
    13:00 +32°C° 0 mm 2 mps 700 mmHg 34%
    14:00 +32°C° 0 mm 2 mps 699 mmHg 33%
    15:00 +32°C° 0 mm 1 mps 699 mmHg 33%
    16:00 +32°C° 0 mm 1 mps 698 mmHg 33%
    17:00 +29°C° 0 mm 1 mps 698 mmHg 39%
    18:00 +27°C° 0 mm 1 mps 698 mmHg 46%
    19:00 +24°C° 0 mm 1 mps 698 mmHg 53%
    20:00 +23°C° 0 mm 1 mps 698 mmHg 54%
    21:00 +23°C° 0 mm 1 mps 699 mmHg 56%
    22:00 +22°C° 0 mm 1 mps 699 mmHg 58%
    23:00 +19°C° 0 mm 0 mps 699 mmHg 60%

    23 January, Thursday

    Time Temperature Precipitation Wind Pressure Humidity
    00:00 +19°C° 0 mm 0 mps 698 mmHg 62%
    01:00 +18°C° 0 mm 0 mps 698 mmHg 64%
    02:00 +18°C° 0 mm 0 mps 698 mmHg 66%
    03:00 +18°C° 0 mm 0 mps 697 mmHg 68%
    04:00 +17°C° 0 mm 0 mps 697 mmHg 70%
    05:00 +17°C° 0 mm 0 mps 697 mmHg 71%
    06:00 +17°C° 0 mm 0 mps 698 mmHg 73%
    07:00 +17°C° 0 mm 0 mps 698 mmHg 74%
    08:00 +20°C° 0 mm 0 mps 699 mmHg 63%
    09:00 +26°C° 0 mm 1 mps 700 mmHg 52%
    10:00 +29°C° 0 mm 1 mps 701 mmHg 41%
    11:00 +30°C° 0 mm 1 mps 700 mmHg 37%
    12:00 +32°C° 0 mm 2 mps 699 mmHg 34%
    13:00 +34°C° 0 mm 2 mps 698 mmHg 30%
    14:00 +32°C° 0 mm 2 mps 698 mmHg 30%
    15:00 +32°C° 0 mm 2 mps 697 mmHg 29%
    16:00 +32°C° 0 mm 2 mps 696 mmHg 29%
    17:00 +29°C° 0 mm 1 mps 696 mmHg 36%
    18:00 +26°C° 0 mm 1 mps 696 mmHg 42%
    19:00 +24°C° 0 mm 1 mps 696 mmHg 49%
    20:00 +23°C° 0 mm 1 mps 697 mmHg 49%
    21:00 +22°C° 0 mm 1 mps 697 mmHg 50%
    22:00 +22°C° 0 mm 1 mps 698 mmHg 51%
    23:00 +19°C° 0 mm 0 mps 697 mmHg 53%

    24 January, Friday

    Time Temperature Precipitation Wind Pressure Humidity
    00:00 +19°C° 0 mm 0 mps 697 mmHg 54%
    01:00 +18°C° 0 mm 0 mps 697 mmHg 56%
    02:00 +18°C° 0 mm 0 mps 697 mmHg 58%
    03:00 +18°C° 0 mm 0 mps 696 mmHg 59%
    04:00 +17°C° 0 mm 0 mps 696 mmHg 61%
    05:00 +17°C° 0 mm 0 mps 697 mmHg 63%
    06:00 +17°C° 0 mm 0 mps 697 mmHg 64%
    07:00 +16°C° 0 mm 0 mps 697 mmHg 66%
    08:00 +20°C° 0 mm 0 mps 698 mmHg 55%
    09:00 +25°C° 0 mm 1 mps 699 mmHg 45%
    10:00 +29°C° 0 mm 1 mps 700 mmHg 35%
    11:00 +30°C° 0 mm 2 mps 699 mmHg 31%
    12:00 +31°C° 0 mm 2 mps 698 mmHg 27%
    13:00 +33°C° 0 mm 3 mps 697 mmHg 24%
    14:00 +33°C° 0 mm 3 mps 697 mmHg 25%
    15:00 +33°C° 0 mm 3 mps 696 mmHg 26%
    16:00 +31°C° 0 mm 2 mps 696 mmHg 28%
    17:00 +29°C° 0 mm 2 mps 695 mmHg 32%
    18:00 +26°C° 0 mm 1 mps 695 mmHg 37%
    19:00 +21°C° 0 mm 0 mps 695 mmHg 42%
    20:00 +20°C° 0 mm 0 mps 696 mmHg 42%
    21:00 +19°C° 0 mm 0 mps 696 mmHg 42%
    22:00 +19°C° 0 mm 0 mps 696 mmHg 43%
    23:00 +18°C° 0 mm 0 mps 696 mmHg 42%

    25 January, Saturday

    Time Temperature Precipitation Wind Pressure Humidity
    00:00 +18°C° 0 mm 0 mps 696 mmHg 42%
    01:00 +17°C° 0 mm 0 mps 696 mmHg 42%
    02:00 +16°C° 0 mm 0 mps 695 mmHg 43%
    03:00 +16°C° 0 mm 0 mps 695 mmHg 44%
    04:00 +15°C° 0 mm 0 mps 695 mmHg 46%
    05:00 +15°C° 0 mm 0 mps 695 mmHg 47%
    06:00 +14°C° 0 mm 0 mps 696 mmHg 49%
    07:00 +14°C° 0 mm 0 mps 696 mmHg 50%
    08:00 +18°C° 0 mm 0 mps 697 mmHg 43%
    09:00 +21°C° 0 mm 0 mps 698 mmHg 36%
    10:00 +25°C° 0 mm 0 mps 699 mmHg 30%
    11:00 +28°C° 0 mm 1 mps 698 mmHg 25%
    12:00 +30°C° 0 mm 2 mps 697 mmHg 21%
    13:00 +31°C° 0 mm 2 mps 697 mmHg 17%
    14:00 +31°C° 0 mm 2 mps 696 mmHg 17%
    15:00 +31°C° 0 mm 2 mps 695 mmHg 17%
    16:00 +31°C° 0 mm 2 mps 695 mmHg 17%
    17:00 +27°C° 0 mm 2 mps 695 mmHg 24%
    18:00 +24°C° 0 mm 1 mps 695 mmHg 30%
    19:00 +19°C° 0 mm 0 mps 694 mmHg 37%
    20:00 +18°C° 0 mm 0 mps 695 mmHg 38%
    21:00 +18°C° 0 mm 0 mps 695 mmHg 38%
    22:00 +17°C° 0 mm 0 mps 696 mmHg 39%
    23:00 +16°C° 0 mm 0 mps 696 mmHg 40%
    Show more